Regional Weather Roundup
Issued by NWS Wakefield, VA

Home | Current Version | Previous Version | Text Only | Print | Product List | Glossary On
Versions: 1 2 3 4 5 6 7 8 9 10 11 12 13 14 15 16 17 18 19 20 21 22 23 24 25 26 27
000
ASUS41 KAKQ 311215
RWRAKQ

REGIONAL WEATHER ROUNDUP
NATIONAL WEATHER SERVICE WAKEFIELD VA
800 AM EDT TUE MAY 31 2016

Note: "fair" indicates few or no clouds below 12,000 feet with no
significant weather and/or obstructions to visibility. * = Denotes
station may not report precipitation (e.g., rain,snow,etc.),
thunder or fog.

VAZ042-051-052>054-056-311300-
NORTHERN VIRGINIA

CITY           SKY/WX    TMP DP  RH WIND       PRES   REMARKS
WASH NATIONAL  PTSUNNY   74  67  78 N8        29.98R
DULLES         FAIR      71  68  90 NW6       29.98S FOG
FORT BELVOIR   FAIR      72  68  87 CALM      29.98R
QUANTICO       PTSUNNY   71  68  90 S3        29.99R
FREDERICKSBRG* FOG       67  67 100 CALM      29.98R VSB 1/2
STAFFORD*      CLOUDY    67  66  96 CALM      30.02R
WARRENTON      FAIR      73  66  79 CALM      29.98R
CULPEPER*      PTSUNNY   72  70  93 CALM      29.99R
MANASSAS*      SUNNY     73  72  94 CALM      29.97S FOG
LEESBURG*      FAIR      73  70  88 NW8       29.99S
WINCHESTER     FAIR      68  64  88 CALM      30.01R
FRONT ROYAL*   CLOUDY    64  64 100 CALM      30.00S
LURAY*         FOG       63  63 100 CALM      30.02R VSB 1/4
$$

VAZ048-049-060>072-079>083-311300-
CENTRAL AND SOUTH CENTRAL VIRGINIA

CITY           SKY/WX    TMP DP  RH WIND       PRES   REMARKS
RICHMOND       CLOUDY    67  66  97 CALM      29.98R
CHESTERFIELD*    N/A    N/A N/A N/A MISG        N/A
PETERSBURG*    CLOUDY    69  69 100 CALM      29.99R FOG
HANOVER        FOG       67  65  93 CALM      30.00R VSB 1/2
TAPPAHANNOCK*  CLOUDY    69  69 100 N3        29.99R
QUINTON*       FOG       66  66 100 CALM      29.97R VSB 1
CHARLOTTSVILLE FAIR      68  65  90 CALM      29.99R FOG
GORDONSVILLE*  FAIR      70  68  92 CALM      29.98R
ORANGE*        FAIR      70  70 100 CALM      30.00R
LOUISA*        CLOUDY    72  70  94 CALM      29.98R FOG
BUMPASS*       CLOUDY    66  66 100 CALM      29.99R VSB 1/2
FARMVILLE*     FOG       69  69 100 CALM      29.98R VSB 1/2
CREWE*         CLOUDY    67  67 100 NE3       29.98R VSB 1/4
FORT PICKETT*  NOT AVBL
CHASE CITY*    CLOUDY    67  65  94 CALM      29.99R VSB 1/4
CLARKSVILLE*   CLOUDY    68  68 100 N3        29.97R
SOUTH HILL*    CLOUDY    68  68 100 CALM      30.03S
LAWRENCEVILLE* CLOUDY    67  67 100 CALM      29.98R VSB 1
EMPORIA*       CLOUDY    66  66 100 CALM      29.99R
$$

VAZ088>098-311300-
SOUTHEAST VIRGINIA

CITY           SKY/WX    TMP DP  RH WIND       PRES   REMARKS
NORFOLK        CLOUDY    72  68  87 CALM      29.96R
VIRGINIA BEACH CLOUDY    75  68  78 CALM      29.96R
NORFOLK NAVAL  PTSUNNY   72  69  90 CALM      29.98R
WEST POINT*    CLOUDY    68  68  99 CALM      29.99R
SALUDA*        CLOUDY    69  69  99 CALM      29.98R
NEWPORT NEWS   CLOUDY    71  70  96 N3        29.98R FOG
LANGLEY AFB    CLOUDY    70  70 100 NE6       29.97R
FORT EUSTIS    CLOUDY    71  60  68 N2        29.96R
WILLIAMSBURG*  FAIR      72  72 100 CALM      29.98R
HR EXEC AP*    CLOUDY    70  68  94 CALM      29.99R
FRANKLIN*      CLOUDY    69  68  98 CALM      29.98R FOG
US460-WAKEFLD  CLOUDY    68  66  93 NE3       29.97R
$$

VAZ020-022-025-037-045-311300-
WEST CENTRAL AND SOUTHWEST VIRGINIA

CITY           SKY/WX    TMP DP  RH WIND       PRES   REMARKS
STAUNTON*      FOG       62  62 100 CALM      30.05R VSB<1/4
WAYNESBORO*    FAIR      65  62  92 CALM      30.04R
HOT SPRINGS VA FAIR      66  56  71 E6        30.12R
LYNCHBURG      PTSUNNY   70  65  84 N5        30.01R
DANVILLE       CLOUDY    71  68  90 N5        29.99R
SOUTH BOSTON*  CLOUDY    69  67  95 CALM      29.99R
MARTINSVILLE   FAIR      64  64 100 CALM      30.03R
ROANOKE        FAIR      68  64  87 N6        30.04R
BLACKSBURG     FOG       62  62 100 CALM      30.09R VSB 1/4
DUBLIN*        PTSUNNY   65  65 100 CALM      30.08R
MARION*        FAIR      62  61  96 CALM      30.11R
HILLSVILLE*    CLOUDY    61  61 100 CALM      30.07R FOG
RICHLANDS*     FAIR      65  60  83 CALM      30.09R
WISE*          FAIR      68  57  68 CALM      30.10R
ABINGDON*      PTSUNNY   66  64  91 CALM      30.07R
$$

MDZ021>025-VAZ099-100-311300-
SOUTHERN MARYLAND AND THE DELMARVA PENINSULA

CITY           SKY/WX    TMP DP  RH WIND       PRES   REMARKS
PATUXENT RIVER CLOUDY    70  67  90 CALM      29.98R
BAY BRIDGE APT CLOUDY    72  68  88 CALM      29.97S
LEONARDTOWN    CLOUDY    68  66  94 CALM      29.99R
DOVER          PTSUNNY   70  70 100 VRB1      29.97R
GEORGETOWN     CLOUDY    69  68  96 N3        29.98R
EASTON         PTSUNNY   72  72 100 CALM      30.01R
CAMBRIDGE        N/A     66  66 100 CALM      29.97R
SALISBURY      CLOUDY    69  68  96 N5        29.97R
OCEAN CITY     PTSUNNY   69  68  96 NE3       29.96S
WALLOPS ISLAND FOG       70  69  97 N3        29.97R VSB 3/4
ACCOMACK*      FOG       68  66  94 CALM      29.97R VSB 1/4
$$

NCZ012>017-030>032-311300-
NORTH CENTRAL AND EASTERN NORTH CAROLINA

CITY           SKY/WX    TMP DP  RH WIND       PRES   REMARKS
ROANOKE RAPIDS FOG       68  68 100 CALM      29.97R VSB 1/2
RALEIGH        PTSUNNY   71  69  93 NE5       29.97R
ELIZABETH CITY PTSUNNY   72  69  90 NE3       29.96R
AHOSKIE*       CLOUDY    69  67  95 N3        29.98R
EDENTON*       CLOUDY   N/A N/A N/A NE5       29.96S HAZE
CURRITUCK*     PTSUNNY   71  71 100 CALM      29.97R
KILL DEVIL HLS CLOUDY    69  69 100 NE5       29.95R
MANTEO         NOT AVBL
CAPE HATTERAS  PTSUNNY   74  73  97 NE5       29.94S
TARBORO*       CLOUDY    71  69  91 CALM      29.97R
GOLDSBORO      NOT AVBL
WASHINGTON     CLOUDY    69  69 100 NE3       29.95S FOG
GREENVILLE     CLOUDY    70  70 100 NE7       29.97R
NEW BERN       CLOUDY    72  70  93 N8        29.95R FOG
WILMINGTON     CLOUDY    72  71  97 N7        29.91R
$$

VAZ048-311300-
ELSEWHERE

CITY           SKY/WX    TMP DP  RH WIND       PRES   REMARKS
HARRISBURG PA  MOSUNNY   70  65  84 NW9       29.99R
BALTIMORE      PTSUNNY   71  67  87 CALM      29.97R
ANNAPOLIS      CLOUDY    71  68  90 CALM      29.97R
ANDREWS AFB    CLOUDY    69  67  95 VRB1      29.97R
PHILADELPHIA   PTSUNNY   71  67  87 S6        29.97R
GREENSBORO     PTSUNNY   72  66  83 NE6       29.99R
ROCKY MOUNT    CLOUDY    72  70  93 N6        29.96R
$$

VAZ100-311300-
MARINE

STATION/POSITION TIME  TEMP    WIND        PRES    WAVE   SWELL
                       AIR SEA DIR/SP/G            HT/PER HT/PER
                 (UTC) (F)     (DEG/KT/KT) (MB)    (FT/S) (FT/S)
BRANDYWINE LGT   1100   67     140/  2/  2 1014.9R
CAPE MAY NJ      1112   65 67  100/  3/  3 1014.6R
LEWES DE         1100   66 64   90/  1/  2 1014.8R
15NM E FENWICK I 1150   65 64              1014.6R   4/ 7
OCEAN-CITY-INLET 1100   63 58   10/  4/  5 1014.7R
WACHAPREAGUE VA  1100   68 73   50/  6/  7 1013.7R
THOMAS POINT MD  1200   69 69  150/  3/  3 1016.3R
GOOSES REEF MD   1200   71 69  340/  2/  2 1016.0R   0
COVE POINT MD    1100   67      CALM  /  2 1015.0R
SOLOMONS ISLAND  1100   68 67  350/  3/  4   N/A
BISHOPS HEAD MD  1100   69 72   50/  6/  7 1014.5R
PINEY POINT MD   1100           70/  3/  3   N/A
POTOMAC MD       1200   68 69   CALM  /  2 1014.1R   0
CAMBRIDGE MD     1106   68 70  100/  2/  3 1013.7R
LEWISETTA VA     1100   69 71  330/  3/  3 1014.0R
RAPPAHANNOCK LGT 1100           10/  4/  5 1014.7R
STINGRAY PT      1200   69 69   40/  4/  6 1015.4R   0
YORK RVR RNG VA  1100   70      60/  6/  7 1013.7R
YORKTOWN VA      1100   70 70  360/  5/  5 1014.0R
JAMESTOWN VA     1200   70 75  340/  2/  4   N/A     0
DOMINION TERM VA 1100   70      80/  4/  5 1014.2R
KIPTOPEKE VA     1100      69  340/  4/  4   N/A
CHES BAY BRIDGE  1100   69 65  340/  2/  2 1014.0R
CAPE HENRY VA    1100   68      CALM  /  1   N/A
CHESAPEAKE LGHT  1100   68      40/  3/  3 1014.9R
WILLOUBY STN VA  1100   69      80/  3/  3 1015.2R
CAPE HENRY BUOY  1112      69                N/A     4/ 8
1ST LANDING BUOY 1200   69 69   40/  4/  4 1014.9R   2/ 5
CAPE CHARLES BUO 1126      69                N/A     3/ 8   3/ 8
OFFSHORE WE BUOY 1121      70                N/A     5/ 8   5/ 8
64NM E OF VA BCH 1150   65 65  310/  2/  4 1014.2R   5/ 7   5/ 7
DUCK PIER NC     1100   66 58   40/  4/  5 1013.5R
44100 DUCK FRF   1124      68                N/A     4/ 9   2/11
44056 DUCK FRF   1111      62                N/A     3/ 9
OREGON INLET NC  1100   68 73   20/  5/  6 1014.1R
HATTERAS NC      1100   73 74   40/  3/  4 1012.9R
DIAMOND SHLS NC  1150   77 80  160/ 12/ 16 1013.2R   5/ 9   5/ 9
CAPE LOOKOUT NC  1200   75     350/  2/  2 1012.9R
$$




USA.gov is the U.S. government's official web portal to all federal, state and local government web resources and services.